Location: Kearney
(40.6990°N, 99.0810°W)
Time: 17:46:47
(UTC-05:00)

ATLAS 2AS CENTAUR R/B - Pass Details

Date: 18 December 2017
Orbit: 909 x 1302 km, 63.7° (Epoch: 18 April)

Event Time Altitude Azimuth Distance (km) Brightness Sun altitude
Rises 17:29:25 0° 224° (SW) 4,070 7.5 -3.9°
Reaches altitude 10° 17:32:07 10° 228° (SW) 3,157 6.8 -4.3°
Maximum altitude 17:39:45 63° 309° (NW) 1,406 3.5 -5.6°
Drops below altitude 10° 17:47:50 10° 30° (NNE) 3,323 4.8 -7.0°
Enters shadow 17:50:12 - 33° (NNE) 4,108 5.2 -7.4°
